Погода в Няксимволе

Погода в Няксимволе : погода сейчас, прогноз погоды и архив. Всё, что Вы хотите узнать о погоде в Няксимволе!

Хотите узнать прогноз погоды в Няксимволе? Тогда Вам сюда: Погода в Няксимволе

Поиск расширенной информации на нашем сайте:

Другие новости

Новости СМИ2

Главная страница сайта

Новости сайта

03.07.2017

Напоминаем, что на нашем специализированном сайте Метеоцентр.Азия вы можете получить высокодетализированные автоматические прогнозы погоды по пунктам России, СНГ и мира в авиационном формате (включающие направление и скорость ветра, видимость, явления погоды, количество и форму облачности, нижнюю и верхнюю границу облачности).


Погода в Няксимволе - сегодня

Время (UTC), дата Ветер
(°,м/с) 
Видим.   Явления Облачность Т
(°С)
Тd
(°С)
f(%) Тe
(°С)
Pmin
(гПа)
dP
(гПа)
Po
(мм)
O2
(г/м3)
Тmin Tmax R s Состояние
почвы
18 11.11.18 260 (З) 20000 м    3/0 средняя 
[Ac trans]
-6.9 -11.1 72 -11  1031  -1.2  768  319           
21 11.11.18 250 (З) 4{11}  20000 м    3/0 средняя 
[Ac trans]
-8 -12.5 70 -12  1029.2  -1.8  767  320           
00 12.11.18 250 (З) 20000 м    4/0 средняя 
[Ac trans]
-9.4 -12.7 77 -11  1028.3  -0.9  766  321           
03 12.11.18 270 (З) 5{10}  20000 м    9/0 средняя 
[Ac As]
-7.6 -12.1 70 -12  1027.7  -0.6  766  319  -10.5      10  равномерный
сухой снег
100% 
06 12.11.18 280 (З) 3{10}  20000 м    10/0 средняя 
[As op]
-5.9 -10.9 68 -8  1027.9  0.2  766  317           
09 12.11.18 270 (З) 20000 м  снег  10/0 средняя 
[As trans]
-6.4 -8.2 87 -9  1028.2  0.3  766  317           
12 12.11.18 250 (З) 20000 м  {снег}  8/0 средняя 
[As trans]
-5.3 -8 81 -7  1027.8  -0.4  766  316           
15 12.11.18 250 (З) 20000 м  слаб. снег  10/0 средняя 
[As trans]
-4.5 -5.9 90 -7  1027.8  766  314    -4.4     
18 12.11.18 240 (ЮЗ) 20000 м  {снег}  10/0 средняя 
[As op]
-3.9 -6.3 83 -6  1028  0.2  766  314           
21 12.11.18 230 (ЮЗ) 20000 м    8/0 средняя 
[As trans]
-4.3 -7.1 81 -7  1027.6  -0.4  766  314           
00 13.11.18 220 (ЮЗ) 20000 м    10/0 средняя 
[As op]
-4.1 -6.4 84 -5  1026.3  -1.3  765  314           
03 13.11.18 240 (ЮЗ) 4{11}  20000 м    9/0 средняя 
[As trans]
-4.6 -7.8 78 -8  1025.7  -0.6  764  314  -5.1    0.0  11  равномерный
сухой снег
100% 
09 13.11.18 230 (ЮЗ) 4{11}  20000 м    10/0 верхняя 
[Cc]
-5.5 -10.1 70 -9  1023.6  -0.8  763  315           
12 13.11.18 250 (З) 20000 м    8/0 верхняя 
[Cc]
-6.5 -11 70 -11  1023.1  -0.5  762  316           
18 13.11.18 240 (ЮЗ) 20000 м    4/0 верхняя 
[Cc]
-5.3 -8.6 78 -9  1020.8  -1.5  761  313           
21 13.11.18 210 (ЮЗ) 2{10}  20000 м    8/0 средняя 
[Ac As]
-5.9 -8.8 80 -7  1018.6  -2.2  759  313           
00 14.11.18 250 (З) 20000 м    10/10 1000 м 
[Sc]
-3.5 -7.7 73 -6  1015.7  -2.8  757  310           
03 14.11.18 240 (ЮЗ) 6-11{11}  20000 м    10/10 1000 м 
[Sc]
-5.1 -10.1 68 -10  1014.4  -1.3  756  311  -7      11  равномерный
сухой снег
100% 
06 14.11.18 230 (ЮЗ) 4{11}  20000 м    9/8 1000 м верхняя 
[Sc|Ci fib]
-4.7 -9.5 69 -8  1014.2  -0.2  756  311           
09 14.11.18 260 (З) 20000 м    10/10 1000 м 
[Sc]
-3.4 -7.1 76 -6  1014.3  0.1  756  309           
12 14.11.18 240 (ЮЗ) 3{10}  20000 м    10/10 1000 м 
[Sc]
-3.1 -6 80 -5  1015.6  1.3  757  309           
18 14.11.18 190 (Ю) 20000 м    4/0 средняя 
[As op]
-5.3 -6.7 90 -5  1019.4  1.9  760  313           
21 14.11.18 220 (ЮЗ) 20000 м    3/0 средняя 
[As op]
-3.7 -5.9 85 -3  1020.3  0.9  760  311           
00 15.11.18 тихо ()   20000 м    3/0 средняя 
[As op]
-5.6 -7 90 -6  1022.8  2.5  762  314           
03 15.11.18 270 (З) 20000 м    10/0 средняя 
[As trans]
-3.5 -5 89 -3  1025.9  764  313  -6.2      11  равномерный
сухой снег
100% 
Время (UTC), дата Ветер
(°,м/с) 
Видим.   Явления Облачность Т
(°С)
Тd
(°С)
f(%) Тe
(°С)
Pmin
(гПа)
dP
(гПа)
Po
(мм)
O2
(г/м3)
Тmin Tmax R s Состояние
почвы

Для получения пояснительной информации подведите курсор к названию столбца.

ПОГОДА в Няксимволе - архив

Всё, что Вы хотите узнать о погоде в Няксимволе - удобно и подробно!

Выберите нужную дату (начиная с 1 января 2015* года) и нажмите кнопку "Найти".
Будут отображены архивные сводки погоды по пункту Няксимволь, начиная с указанной даты.


Отображать данные в формате CSV (для использования в таблицах Excel)


Внимание! Наш архив погоды предназначен исключительно для личного некоммерческого использования в познавательных целях. Если Вам необходимы официальные справки о состоянии погоды (для производственных, юридических, коммерческих и т.п. целей), обращайтесь в органы Росгидромета.

*Примечание: данная дата относится к архиву по метеостанциям СССР (Россия, СНГ, Балтия).
Архив по метеостанциям Зарубежной Европы и Азии (кроме Китая) хранится 10 дней, по другим регионам земного шара (Китай, Африка, Америка, Австралия, Океания) - 1 день.

Няксимволь - район местоположения метеостанции


Название, широта, долгота, высота метеостанции:
Няксимволь 62.4°ш. 60.9°д. 51 м над ур. моря [Российская Федерация]

Дополнительная информация

В oтличие oт бoльшинства пoгoдных сайтoв мы публикуем пoдрoбную метеoинфoрмацию в детальнoм прoфессиoнальнoм фoрмате.

Характеристики температуры и влажнoсти вoздуха измеряются на высoте 2 м в тени вдали oт зданий и деревьев.
Скoрoсть ветра измеряется на высoте 10 м (на урoвне рoста челoвека скoрoсть ветра ниже в 1.5-2 раза). Если метеoстанция нахoдится в гoрoде или в лесу, тo скoрoсть ветра занижена на 2-4 м/с пo сравнению с oткрытым местoм. Скoрoсть ветра над акватoриями крупных рек и oзёр, а также на вершинах хoлмoв на 2-5 м/с выше, чем в oбычных услoвиях.
Атмoсфернoе давление в разных тoчках местнoсти мoжет значительнo oтличаться oт давления на метеoстанции, в зависимoсти oт услoвий рельефа (при пoдъёме на 10 м давление пoнижается примернo на 1 мм рт.ст.).